GFSNIL_850_spd_000.txt.gz
Wind_Speed
11 11 13 16 21 20 17 20 19 18 20 19 21 22 21 21 23 23 26 21 18 26
11 11 18 22 17 17 16 15 18 23 24 20 24 24 26 25 25 27 29 25 28 23
21 19 16 16 17 15 19 24 23 20 23 21 20 19 25 29 30 30 23 23 24 22
16 15 15 16 17 19 24 30 24 24 27 25 23 25 25 25 24 22 23 22 22 23
17 17 16 18 22 24 20 18 19 21 23 24 24 24 26 26 25 25 23 22 23 26
19 17 16 18 19 17 20 21 22 23 23 23 23 22 22 22 19 16 17 21 25 25
21 17 16 16 18 19 21 22 22 22 21 22 23 24 23 21 23 27 31 34 29 30
23 19 13 15 16 19 21 21 21 23 23 25 24 23 24 28 30 32 33 35 35 29
25 21 14 14 15 17 21 20 24 23 25 24 23 22 28 33 33 34 36 39 38 26
23 20 14 14 15 17 21 24 24 26 24 22 21 24 31 35 37 38 38 31 25 27
25 16 12 13 17 17 22 24 27 23 22 22 23 25 33 36 33 34 34 26 25 27
16 14 16 11 18 18 25 24 21 23 24 28 32 33 31 29 33 31 31 26 23 23
12 15 14 14 15 20 21 21 26 28 30 33 31 25 27 30 27 29 31 27 28 27
15 15 14 14 18 20 21 24 23 26 30 28 23 25 24 26 24 27 30 29 26 21

GFSNIL_850_spd_003.txt.gz
Wind_Speed
13 11 8 14 26 25 16 12 14 20 23 25 26 22 24 24 25 24 29 29 30 32
9 13 28 25 18 13 10 15 19 24 31 25 24 26 27 28 26 26 26 28 29 29
23 33 21 13 14 11 16 18 27 27 25 25 26 25 22 23 24 24 22 21 22 21
31 17 13 18 19 20 26 29 28 23 24 24 24 23 25 25 25 25 24 22 20 21
25 19 23 30 26 24 25 22 17 20 23 23 23 24 23 23 24 22 16 16 21 24
26 23 29 26 21 18 17 21 19 16 19 23 25 26 27 27 26 23 25 29 32 32
36 26 21 16 15 12 18 20 17 16 19 26 26 28 30 28 28 30 32 34 32 34
34 27 21 26 15 14 20 14 14 18 23 24 26 29 28 28 30 33 35 38 39 37
34 30 30 22 18 9 9 13 18 22 22 23 24 27 30 30 30 35 36 31 36 33
28 33 29 15 16 15 14 13 20 20 19 21 28 25 26 32 35 31 29 32 31 27
31 34 24 10 11 17 15 17 18 18 19 25 22 27 28 31 31 31 29 29 29 26
25 21 16 13 17 14 14 17 18 20 23 25 27 29 31 30 29 25 30 26 31 26
27 22 23 17 13 11 12 18 18 20 22 26 28 29 28 27 25 25 27 32 32 21
21 19 18 17 11 15 19 16 18 22 24 24 29 26 29 28 25 27 31 30 23 21

GFSNIL_850_spd_006.txt.gz
Wind_Speed
9 9 12 26 30 37 25 19 16 15 20 26 26 25 26 24 20 18 20 21 21 21
23 28 28 30 27 19 19 19 16 19 26 28 25 24 23 23 22 22 20 21 22 22
30 33 37 35 29 23 23 19 18 23 28 24 21 21 19 21 21 22 24 26 24 23
29 32 32 26 21 24 22 24 25 25 24 22 20 18 19 21 23 24 26 21 17 19
26 29 32 29 29 34 27 26 15 23 24 21 19 22 22 23 26 26 25 26 26 30
32 28 30 30 28 18 13 14 20 15 18 17 21 22 23 24 24 23 23 27 29 32
37 32 25 24 18 19 31 17 12 16 15 21 21 22 24 23 24 24 25 28 34 34
35 31 29 27 29 25 16 10 8 13 18 19 21 22 22 25 23 26 33 33 28 30
32 33 31 31 27 16 12 8 10 17 19 21 20 22 20 23 29 30 29 30 29 26
35 36 31 25 16 18 12 18 12 17 19 18 19 19 25 29 29 29 28 28 28 26
33 33 26 20 23 19 13 12 14 16 17 16 21 25 28 28 27 27 28 27 27 28
30 29 21 17 17 13 17 10 14 15 15 19 23 28 29 28 28 26 26 28 28 22
31 23 20 16 17 13 8 15 13 13 15 20 25 28 27 26 27 27 28 25 22 19
27 19 14 11 8 11 16 14 11 12 18 23 26 25 24 26 22 20 22 22 19 16

GFSNIL_850_spd_009.txt.gz
Wind_Speed
15 19 22 21 25 26 29 24 20 16 13 17 22 21 19 18 20 20 19 16 17 19
19 22 25 27 29 31 29 24 16 12 19 16 21 19 19 19 16 17 18 20 22 20
18 19 24 26 29 28 24 22 22 27 21 10 18 20 20 18 18 20 22 22 22 21
25 30 32 30 29 26 23 19 22 22 11 20 15 16 19 20 21 22 24 23 22 22
31 33 31 27 22 22 20 26 26 30 27 12 16 16 19 21 23 23 25 24 24 27
35 31 31 29 22 21 23 24 30 27 16 12 16 18 20 22 24 25 25 24 28 34
30 30 30 29 23 22 25 27 19 15 12 12 19 20 21 23 23 23 23 30 33 31
30 31 29 28 24 20 18 18 17 13 9 16 18 20 20 21 22 26 30 32 29 27
29 30 28 26 21 17 17 20 14 15 17 16 19 18 19 21 26 29 29 30 29 27
28 27 29 26 20 18 21 18 11 15 15 16 17 19 21 25 28 28 29 29 27 28
28 29 29 23 17 13 14 13 15 11 13 16 19 21 24 27 26 25 26 26 26 24
27 32 25 22 19 17 16 13 10 12 13 18 19 23 26 25 27 29 26 21 21 19
32 26 21 17 14 9 8 11 10 15 15 17 20 23 22 24 26 25 22 21 18 15
27 21 17 13 16 18 18 17 11 10 14 18 20 20 21 24 23 20 20 20 18 17

GFSNIL_850_spd_012.txt.gz
Wind_Speed
13 14 17 20 23 26 27 27 25 22 23 25 20 27 18 14 16 16 16 16 16 18
18 18 20 25 30 29 29 26 24 21 22 22 28 17 12 15 16 16 15 17 18 20
22 24 27 31 31 29 26 20 22 21 26 26 25 16 10 14 14 16 18 18 22 22
23 28 31 29 31 28 20 18 23 23 22 22 18 13 11 15 17 19 20 22 24 24
25 26 29 30 29 25 19 18 20 22 22 24 25 13 13 17 20 22 25 26 27 27
24 27 29 30 27 24 18 17 20 23 25 20 14 11 16 19 22 23 26 25 27 31
25 28 30 29 27 24 20 20 20 19 17 16 11 13 18 21 21 24 24 27 31 33
26 29 29 28 28 24 18 16 19 20 14 11 16 18 17 19 21 25 29 32 32 31
28 27 27 29 27 22 16 18 19 14 13 14 18 15 16 21 25 29 32 31 31 31
27 26 29 29 24 21 18 15 14 12 16 16 13 15 19 23 28 29 27 29 28 26
24 26 32 28 23 21 20 18 18 18 12 11 14 19 21 27 26 25 27 25 22 22
22 27 30 25 20 17 15 13 11 12 9 17 16 20 24 24 23 24 24 21 19 19
24 28 27 22 16 16 19 18 17 13 13 12 17 21 20 20 22 23 23 20 19 17
27 26 23 21 17 17 16 14 13 13 11 16 18 17 17 19 21 21 22 21 21 18

GFSNIL_850_spd_018.txt.gz
Wind_Speed
8 10 8 12 16 15 17 18 20 19 17 14 13 13 15 12 14 12 11 11 12 14
9 12 15 18 17 17 17 18 19 18 14 13 12 14 14 16 17 14 14 14 15 16
9 13 16 18 18 18 18 19 18 17 16 15 17 18 17 20 17 16 16 17 18 19
10 14 17 17 16 17 19 18 18 17 16 17 19 23 21 21 20 15 16 17 18 20
12 16 12 13 16 17 18 18 18 17 16 17 19 22 23 18 13 14 18 19 20 21
10 11 12 14 17 17 18 18 17 17 17 17 19 20 16 12 12 15 17 15 17 22
11 12 14 15 17 18 19 19 17 16 17 18 16 13 12 12 13 14 11 14 17 22
13 14 15 16 18 19 20 18 17 17 16 14 11 13 14 11 10 11 15 17 19 18
16 15 16 18 17 18 19 18 16 16 16 13 11 20 15 11 10 15 16 18 17 17
17 17 17 17 17 18 18 17 14 14 12 12 9 12 10 15 16 17 16 15 15 16
16 16 17 16 17 18 17 14 13 13 11 8 9 13 16 16 19 16 13 14 14 15
17 15 16 17 17 18 16 14 13 12 10 8 9 14 15 20 19 14 15 13 13 15
15 15 16 17 17 14 13 13 11 11 10 13 12 16 18 19 16 14 14 13 13 16
15 15 17 15 12 11 12 12 12 14 14 14 14 17 19 18 16 14 15 13 14 13

GFSNIL_850_spd_021.txt.gz
Wind_Speed
6 10 3 4 6 7 10 12 15 16 17 16 15 16 20 18 18 16 14 16 15 15
10 3 2 4 6 8 10 12 14 15 16 16 16 17 20 19 18 17 17 17 15 14
2 4 3 5 8 11 12 13 14 15 16 16 17 18 20 22 23 22 20 20 14 15
6 6 5 8 10 11 13 14 15 16 17 16 16 18 20 23 22 21 20 15 15 16
8 7 9 10 11 13 14 15 16 17 16 17 18 18 18 22 19 15 14 13 15 17
11 11 11 12 13 14 15 16 17 17 17 18 16 21 16 17 15 13 13 13 14 17
13 13 13 14 14 15 16 17 17 17 18 18 18 16 14 12 12 12 13 11 13 18
14 14 14 15 16 16 17 16 17 17 18 18 17 13 10 12 11 11 12 15 18 19
14 14 15 16 17 17 16 17 17 17 16 15 12 14 16 13 9 11 15 18 18 16
14 15 15 16 17 17 17 17 17 15 13 12 11 15 13 11 14 12 15 16 15 15
13 16 15 15 16 17 17 17 15 14 13 11 13 15 15 13 15 13 13 13 13 13
13 14 16 16 16 17 17 16 15 14 12 12 14 17 18 15 15 13 13 12 12 13
13 13 16 16 16 16 15 13 15 13 12 12 14 19 19 16 16 12 12 12 11 15
13 14 15 15 15 14 13 13 13 14 12 11 14 15 18 18 16 11 12 11 11 10

GFSNIL_850_spd_024.txt.gz
Wind_Speed
11 6 8 12 10 9 10 11 13 16 18 17 16 14 18 22 23 24 21 20 19 18
7 8 7 9 7 7 10 11 12 17 16 16 16 15 20 22 22 20 21 20 23 19
9 7 9 8 6 9 11 13 13 15 16 17 18 16 16 18 18 21 25 25 23 24
8 11 10 7 8 11 14 13 14 15 16 17 16 17 16 18 19 22 25 20 16 17
12 13 8 9 9 11 14 14 15 16 17 17 17 19 24 24 18 18 15 13 11 12
14 12 13 11 12 14 15 15 17 17 17 18 18 19 18 13 16 15 13 15 14 14
13 14 13 12 14 16 17 17 18 16 17 18 19 19 17 11 11 16 14 14 13 14
16 14 14 15 16 17 18 20 18 16 17 18 17 18 14 16 16 12 11 11 14 16
15 13 13 17 17 19 19 18 18 19 17 17 18 20 17 15 13 11 12 14 16 19
13 10 15 16 16 17 17 19 21 19 18 17 17 19 16 14 14 14 11 14 16 17
10 11 13 18 19 16 17 19 20 19 18 17 18 17 18 16 17 16 13 15 18 15
10 16 18 15 15 18 19 19 19 18 16 14 17 18 19 17 17 17 16 15 15 14
13 19 19 16 19 20 18 17 15 17 17 16 16 19 20 19 19 19 16 13 14 15
16 16 16 18 17 17 19 16 17 21 23 20 18 21 21 20 18 19 18 16 14 12

GFSNIL_850_spd_027.txt.gz
Wind_Speed
23 20 18 16 17 16 13 12 14 14 15 17 18 16 15 16 21 24 19 19 20 20
23 20 17 15 13 12 10 11 12 13 14 17 18 17 13 16 16 17 16 16 21 23
16 15 14 13 11 9 12 13 13 15 16 17 19 15 14 15 16 18 20 21 22 20
14 13 13 12 11 11 13 15 17 19 18 18 17 16 19 19 21 23 21 21 16 13
13 14 13 11 11 13 13 15 20 20 20 20 16 16 20 22 22 21 17 16 14 14
14 14 13 10 14 14 16 18 20 20 21 20 17 18 20 20 12 15 16 16 17 17
13 14 13 19 16 16 17 21 22 23 25 18 18 19 20 21 19 18 15 15 16 14
14 14 19 14 15 13 20 20 24 22 19 20 22 21 22 23 18 18 17 14 14 16
10 12 13 12 12 14 21 21 20 20 20 22 23 22 25 22 16 15 14 16 17 19
19 16 11 9 8 18 22 23 19 21 23 24 22 21 21 20 19 18 17 18 17 18
13 10 9 5 11 16 23 20 21 24 24 23 22 19 20 20 19 19 18 18 18 18
7 3 4 9 13 20 21 26 23 19 21 20 19 18 17 19 19 19 20 19 18 16
5 5 7 11 18 19 24 16 19 19 20 20 22 22 23 23 21 20 18 19 17 16
6 6 13 16 16 16 21 24 24 18 20 23 25 23 20 19 19 18 17 18 15 18

GFSNIL_850_spd_030.txt.gz
Wind_Speed
31 30 27 24 22 20 17 13 10 11 15 15 15 16 16 15 15 17 18 21 20 18
24 24 24 22 19 15 10 11 11 14 14 16 18 18 17 16 15 16 19 20 23 24
24 24 21 19 16 15 13 10 15 15 17 18 19 20 18 17 17 19 21 24 27 24
24 23 19 18 17 13 11 15 16 17 21 22 21 21 18 18 21 24 26 24 22 21
24 23 22 19 16 15 15 15 15 17 19 23 23 22 19 19 22 22 25 23 19 18
24 22 20 17 15 14 16 15 13 17 18 24 24 21 20 22 23 21 20 22 17 18
25 20 17 17 17 18 17 10 12 17 22 22 23 21 20 22 22 20 23 17 20 17
23 18 16 18 18 18 10 9 10 17 22 24 22 21 20 20 20 20 19 20 18 20
18 16 19 21 20 15 10 3 14 21 20 20 21 20 19 20 21 20 18 18 18 20
20 21 22 19 15 7 7 13 14 19 18 19 20 21 22 20 21 20 20 21 22 21
26 27 22 12 2 13 13 12 21 21 22 25 23 21 18 18 20 21 22 21 21 22
12 7 1 9 14 7 15 19 19 20 17 17 19 18 18 20 22 23 21 20 19 20
5 16 13 4 5 14 16 16 17 20 22 23 20 20 21 22 21 20 19 19 19 19
15 10 5 10 13 13 14 18 21 21 19 19 21 20 21 21 21 21 20 20 19 19

GFSNIL_850_spd_033.txt.gz
Wind_Speed
29 31 31 31 32 29 26 21 16 13 21 16 15 15 15 16 15 15 14 15 17 18
30 30 29 31 30 28 22 18 18 20 8 12 15 14 16 15 15 14 13 15 19 23
29 28 29 31 32 29 27 23 22 9 11 12 12 14 16 15 15 15 17 19 20 21
29 29 30 30 29 28 24 21 17 17 11 10 13 15 18 17 16 16 18 19 22 22
25 27 28 30 28 24 22 18 17 13 10 10 13 17 20 17 17 18 18 18 21 22
27 27 29 28 25 25 23 19 15 15 7 10 15 19 20 20 17 19 18 18 18 21
28 29 29 27 25 23 17 16 15 9 7 11 20 21 19 18 19 18 18 18 19 19
31 30 26 25 21 17 19 15 10 9 8 18 22 21 18 20 18 18 18 18 18 19
29 24 21 20 24 20 19 13 10 14 23 17 22 17 19 18 18 18 18 19 18 19
27 25 25 24 22 18 11 5 16 24 15 21 21 21 20 18 19 19 20 20 20 20
27 24 21 20 16 7 9 21 26 13 19 23 22 18 17 19 19 20 21 21 22 20
19 17 11 6 9 19 23 13 13 19 19 21 22 21 19 17 18 21 22 22 22 21
8 4 7 13 17 15 10 14 15 18 21 24 24 22 20 19 21 22 22 22 22 21
16 16 16 11 10 12 13 14 18 22 22 22 20 20 20 20 23 24 23 23 24 22

GFSNIL_850_spd_036.txt.gz
Wind_Speed
41 37 31 28 32 30 28 27 26 26 21 18 26 27 17 16 16 14 14 14 13 14
35 32 27 28 33 29 29 30 31 27 24 21 18 12 11 12 13 14 14 12 13 14
28 27 27 29 29 28 30 33 30 23 23 13 9 9 9 10 13 13 12 13 14 15
29 28 27 28 24 26 29 31 24 22 18 11 10 9 8 13 14 12 11 13 14 15
29 27 24 22 25 28 30 26 22 17 12 12 10 7 10 17 14 15 14 15 16 16
27 24 22 23 26 27 27 22 18 12 11 13 8 7 15 18 17 17 18 18 16 16
26 23 26 27 27 25 21 20 19 14 14 11 8 17 16 20 20 19 20 19 18 17
27 27 27 27 25 24 21 22 21 18 16 11 22 24 17 21 19 21 21 20 19 18
28 29 27 25 24 26 29 26 24 20 14 26 25 15 19 21 21 22 22 22 20 19
27 24 21 20 19 20 22 23 20 15 22 27 19 18 23 24 24 22 22 24 21 21
21 20 18 19 20 19 12 10 17 24 26 15 19 21 21 22 22 23 23 24 23 23
14 17 18 16 15 13 21 23 25 20 16 20 21 23 23 23 23 23 22 23 25 25
13 11 12 13 17 21 17 16 15 17 18 21 24 22 22 20 22 24 24 25 28 27
9 15 17 13 11 11 13 15 17 19 21 24 24 24 23 21 22 23 26 26 28 30

GFSNIL_850_spd_039.txt.gz
Wind_Speed
33 34 35 34 32 32 31 31 30 29 27 25 22 19 19 16 15 10 12 14 14 13
29 32 31 30 33 31 30 31 32 31 28 25 21 18 16 13 9 8 15 14 14 13
22 26 31 33 32 30 30 32 33 33 29 24 19 18 14 10 5 14 15 13 12 13
19 20 23 24 27 27 29 34 34 32 26 21 16 11 8 6 11 15 13 12 12 13
17 19 22 23 25 25 28 33 33 28 23 15 14 13 10 11 19 12 15 14 15 14
22 24 25 23 20 22 27 30 31 27 22 20 18 14 14 16 16 15 18 18 18 18
21 18 19 18 20 20 24 25 28 24 20 18 21 17 16 25 20 18 22 22 22 21
14 15 16 18 18 18 20 24 25 26 25 25 20 17 26 25 18 22 23 23 24 23
12 15 18 18 17 17 20 25 26 24 19 21 28 29 30 19 20 23 24 26 26 25
13 15 16 16 19 20 21 25 22 22 29 32 30 27 19 20 24 26 26 26 26 27
7 10 11 13 15 15 17 16 25 22 25 24 26 19 19 21 26 28 28 27 26 27
3 5 7 9 11 9 17 15 18 23 20 20 18 16 21 25 25 25 25 26 27 26
3 1 4 6 12 15 15 14 15 16 17 19 20 22 24 24 27 28 27 27 28 29
3 7 9 7 6 7 10 13 15 18 19 22 24 26 25 26 27 29 29 30 29 28

GFSNIL_850_spd_042.txt.gz
Wind_Speed
30 33 36 29 30 30 31 30 27 29 30 28 27 25 21 17 18 12 11 10 10 11
28 29 27 26 28 27 29 28 27 28 29 29 28 24 19 17 14 10 9 10 10 11
27 20 19 21 23 24 23 26 27 28 29 31 27 24 21 20 9 7 8 11 11 11
25 23 20 18 18 18 20 21 26 27 33 32 28 24 20 11 13 10 19 12 13 13
16 17 19 19 20 21 21 22 26 29 33 31 27 22 17 16 14 15 16 14 16 17
18 21 21 21 21 21 18 17 25 28 29 24 20 16 16 20 15 23 17 18 19 20
17 15 14 14 13 14 14 17 23 27 25 23 20 22 24 20 25 24 24 21 21 23
9 8 9 8 10 12 15 17 20 21 22 24 27 25 25 28 31 28 22 21 22 23
5 6 7 9 11 12 13 14 16 22 27 26 28 31 33 32 34 31 22 22 22 23
3 4 6 7 8 10 11 13 14 21 22 21 27 32 28 29 28 22 21 22 23 23
4 2 1 1 2 3 5 8 9 10 15 20 21 23 22 22 22 23 23 23 23 24
10 8 7 5 3 1 1 6 10 13 17 18 18 17 17 19 24 23 24 23 24 24
10 8 6 2 5 7 8 8 8 8 10 14 17 19 20 22 26 25 26 26 25 26
3 2 2 3 2 2 4 7 9 13 14 16 17 20 23 23 25 26 29 30 30 27

GFSNIL_850_spd_045.txt.gz
Wind_Speed
32 30 26 24 25 30 33 37 31 30 27 27 28 30 27 26 22 20 19 12 9 12
36 33 26 26 30 31 31 31 31 28 27 27 30 29 28 25 23 20 16 12 11 12
36 31 27 26 24 19 29 29 27 26 26 26 29 30 27 26 21 17 11 15 14 15
32 24 21 21 17 19 24 24 23 26 28 27 28 28 26 21 17 16 19 16 17 15
26 21 23 20 18 20 20 20 22 22 25 24 27 24 22 20 17 21 18 17 16 14
19 19 20 20 20 19 18 21 20 21 22 27 24 22 23 20 24 23 22 21 17 20
15 17 15 14 14 13 13 16 17 18 21 22 20 21 25 23 24 20 27 25 23 22
10 8 6 3 4 6 8 10 12 13 16 18 19 22 22 22 18 26 31 28 29 23
9 8 9 9 8 6 6 8 7 8 8 10 13 15 22 17 21 31 30 30 23 21
10 9 8 6 4 3 2 2 2 3 5 7 7 13 15 22 26 27 27 22 21 23
10 8 7 7 6 5 4 2 1 2 4 8 12 15 19 20 22 21 20 21 23 25
11 11 11 9 6 5 4 4 5 5 8 11 15 12 14 17 18 19 22 23 24 26
11 10 9 7 6 3 3 1 0 1 3 7 9 12 16 19 20 23 24 24 26 28
9 6 5 7 6 5 3 2 3 5 5 6 8 8 17 22 24 25 29 32 34 34

GFSNIL_850_spd_051.txt.gz
Wind_Speed
30 37 41 30 32 28 28 28 21 16 25 23 27 26 26 31 31 31 32 32 24 25
40 42 39 32 33 33 31 28 28 24 28 25 27 26 29 32 31 33 33 27 26 26
42 44 41 35 33 31 30 27 29 29 30 27 26 27 28 29 30 31 30 28 25 23
47 45 40 35 28 27 30 31 31 24 20 22 27 28 28 27 29 30 31 26 22 21
49 36 46 43 39 30 26 26 22 20 22 24 27 28 28 28 30 30 28 23 19 15
36 29 39 32 30 30 30 27 23 22 23 24 25 23 25 27 27 27 22 15 15 18
26 25 23 23 24 23 24 24 22 22 22 21 23 23 23 24 20 18 13 14 19 19
21 21 20 23 23 21 20 20 22 22 21 21 20 19 18 16 14 10 14 20 18 14
26 27 26 24 23 21 21 22 22 20 19 16 15 13 13 12 10 13 15 14 16 18
29 27 23 19 20 19 20 19 18 17 16 14 13 13 12 12 10 10 12 15 20 19
21 21 20 18 16 15 15 15 15 15 15 15 12 12 11 10 10 13 15 14 15 17
23 23 23 22 19 17 17 16 15 14 13 12 11 9 10 11 11 13 13 14 17 21
23 22 21 19 18 17 16 14 12 12 12 14 14 13 12 12 12 13 15 17 19 21
22 20 19 18 17 15 16 16 17 17 14 12 11 12 13 14 14 15 18 20 21 23

GFSNIL_850_spd_054.txt.gz
Wind_Speed
39 39 39 38 36 36 37 33 34 34 29 26 21 26 28 28 25 29 31 30 30 26
42 41 42 40 39 40 39 36 37 35 32 25 23 24 24 26 26 27 29 30 30 27
43 43 43 41 40 38 34 35 30 27 34 28 24 26 22 24 23 26 27 29 29 28
49 50 52 47 41 39 32 35 31 32 29 28 27 27 25 25 26 25 27 28 28 26
47 54 56 51 37 37 33 33 34 28 27 26 26 24 23 24 26 27 27 27 25 23
44 46 46 25 40 45 45 33 36 29 28 24 23 23 25 26 27 27 25 23 21 19
41 43 43 42 43 40 40 40 34 28 24 23 23 25 25 27 26 22 20 20 19 17
39 40 39 38 37 45 33 29 26 25 25 24 24 25 25 22 20 20 19 18 17 18
40 38 35 32 29 33 30 29 27 25 26 25 24 22 19 19 19 19 18 16 17 19
37 33 31 32 31 30 28 26 25 25 24 22 19 18 18 19 18 17 14 16 17 17
38 36 35 31 26 24 24 24 24 23 22 21 20 19 18 17 16 15 17 18 20 22
35 34 29 26 23 23 22 23 23 22 21 20 20 18 17 18 19 18 18 18 19 19
27 25 23 21 22 21 21 20 20 20 19 18 18 19 19 18 17 17 16 16 18 19
24 22 20 21 20 20 21 21 21 21 20 20 21 20 19 17 17 16 16 17 18 18

GFSNIL_850_spd_057.txt.gz
Wind_Speed
42 44 44 40 40 41 40 36 34 32 34 34 34 32 32 28 32 30 29 25 28 36
45 44 44 42 42 42 40 39 33 30 32 35 36 36 32 28 28 28 25 27 32 30
46 44 44 43 42 41 40 38 37 36 35 36 40 42 33 30 28 25 25 26 26 31
47 43 45 48 44 42 41 40 36 31 35 32 36 42 36 32 27 25 26 27 29 29
52 54 51 50 47 35 38 42 42 36 42 30 35 39 37 30 27 30 26 27 27 28
53 53 55 53 52 42 40 40 46 36 36 36 34 32 33 27 27 25 26 27 27 22
56 56 49 47 47 43 44 49 41 39 39 34 32 32 27 27 27 27 27 25 23 22
56 55 47 41 38 37 36 37 39 38 38 38 31 29 27 27 28 28 26 23 20 21
51 49 51 40 39 37 38 41 37 34 34 30 30 29 28 28 28 25 22 22 23 21
45 44 44 42 38 38 40 36 34 33 28 29 29 30 29 26 22 21 22 22 22 24
43 43 44 42 41 40 33 29 31 31 28 28 28 25 24 23 22 22 22 22 23 22
37 40 39 35 34 30 31 31 28 25 27 27 25 25 23 23 23 22 22 21 22 22
33 31 29 28 27 29 25 25 28 26 25 24 23 23 20 19 20 20 20 20 20 19
22 22 23 26 27 27 26 24 25 25 24 21 19 19 19 19 18 19 19 18 18 19

GFSNIL_850_spd_060.txt.gz
Wind_Speed
40 41 45 47 50 50 50 47 46 46 42 39 37 38 37 35 35 34 31 35 33 30
40 41 42 44 44 46 48 46 42 40 39 37 33 31 32 37 36 33 29 27 29 28
39 41 41 41 46 45 44 42 39 38 37 36 39 38 35 38 37 36 32 30 27 27
38 38 39 41 42 44 44 43 39 35 35 36 32 31 31 31 36 38 35 30 27 27
41 42 41 44 45 47 46 45 42 41 42 37 38 36 33 35 36 36 31 31 30 28
43 42 50 52 53 51 50 46 38 44 44 39 38 39 34 33 32 29 31 30 33 27
46 47 48 51 47 47 48 49 39 45 47 43 37 38 33 31 29 27 28 30 27 31
52 48 49 52 53 49 45 41 40 49 54 51 44 40 34 32 29 27 27 30 33 32
42 47 54 55 53 50 47 44 42 45 46 39 37 36 32 32 27 26 27 32 31 27
36 37 39 44 50 51 48 47 43 40 37 31 30 29 27 26 28 29 31 28 25 26
33 35 35 35 38 40 40 42 38 33 32 32 27 27 27 31 33 28 24 24 24 24
31 32 32 33 35 35 32 32 30 30 28 25 30 30 32 29 25 23 22 22 22 23
28 28 29 29 31 30 30 29 28 26 27 26 24 24 23 22 21 21 21 22 22 21
22 20 18 18 20 22 23 25 25 25 23 23 22 21 21 19 18 17 18 18 18 17

GFSNIL_850_spd_063.txt.gz
Wind_Speed
45 48 47 47 53 48 47 48 47 44 45 42 39 38 36 34 35 35 32 38 38 32
43 46 50 50 46 48 47 48 47 48 43 43 44 43 41 38 37 35 34 33 34 30
39 42 46 53 54 52 52 52 50 50 50 47 45 42 39 39 38 39 37 34 35 31
37 39 41 44 45 47 47 49 51 51 50 46 42 39 38 41 39 32 36 32 34 34
35 39 42 42 41 43 43 43 44 45 45 44 41 40 38 37 34 37 33 30 27 31
39 40 40 42 44 45 44 43 43 43 44 44 41 42 43 39 42 40 37 31 30 33
43 43 43 41 43 47 47 44 43 44 44 46 45 47 42 43 38 38 38 34 30 32
45 45 43 43 45 47 45 45 43 43 44 47 48 50 47 38 33 33 33 29 31 29
37 39 43 45 46 47 48 46 45 45 45 45 43 41 42 41 40 39 33 32 30 28
31 32 32 33 37 43 46 46 46 44 43 45 42 37 36 28 28 34 30 31 30 32
31 30 29 29 29 30 34 36 36 36 35 36 35 33 29 30 30 27 31 31 31 31
29 27 27 27 27 28 27 28 28 30 31 30 31 26 29 29 30 32 31 29 26 24
26 26 25 23 20 19 23 25 26 25 27 26 27 30 29 31 34 32 28 23 23 22
22 21 20 16 16 17 18 23 24 24 25 25 22 24 24 22 24 23 23 21 21 20

GFSNIL_850_spd_066.txt.gz
Wind_Speed
41 45 43 45 41 42 46 49 47 46 42 44 40 38 42 36 30 33 30 29 31 35
39 41 38 40 44 46 46 46 46 47 48 46 45 38 42 36 31 32 31 32 34 35
39 38 39 37 40 47 46 47 44 47 51 46 45 44 37 38 35 33 33 35 35 36
39 40 44 42 43 44 44 46 44 46 46 42 40 39 38 37 35 34 39 38 37 34
34 36 41 45 46 48 56 49 49 52 47 45 44 45 44 46 42 47 43 40 38 35
37 39 43 45 44 44 44 45 46 44 48 53 55 53 50 50 50 47 46 41 41 41
38 41 41 41 41 43 45 45 49 48 46 45 43 41 45 47 49 50 47 48 45 45
41 39 38 39 39 41 43 44 43 44 47 45 43 44 45 44 45 49 48 46 45 41
37 38 41 41 41 40 41 42 41 41 42 44 45 48 49 47 42 44 45 46 46 43
33 34 35 35 36 39 40 39 41 42 39 40 41 47 48 44 42 39 37 38 40 44
33 33 30 29 30 30 30 32 34 33 33 34 35 39 37 34 33 36 36 36 36 38
31 31 30 30 28 25 25 27 27 27 26 26 25 26 27 30 36 35 35 36 34 35
28 29 29 27 27 29 26 25 21 20 22 27 28 28 28 29 30 31 33 32 31 27
23 24 23 27 28 24 21 20 21 24 25 26 27 28 29 29 30 31 32 30 26 25

GFSNIL_850_spd_069.txt.gz
Wind_Speed
35 34 39 41 34 45 56 55 53 42 42 44 41 38 36 35 34 36 36 35 32 30
35 37 40 40 44 39 48 49 51 49 46 46 49 45 40 37 36 41 39 40 35 33
39 39 34 35 42 45 43 48 50 49 54 57 57 51 50 48 44 40 39 42 39 35
36 37 39 37 39 37 41 49 50 50 50 49 50 53 49 47 44 41 40 39 39 38
32 35 39 40 40 39 39 40 44 43 44 48 47 47 48 46 45 45 43 42 38 42
34 35 40 43 42 40 41 40 43 43 48 47 47 47 47 47 48 47 46 44 43 47
39 41 42 41 40 44 44 44 47 47 48 47 48 48 47 47 47 48 47 47 47 53
41 39 35 39 41 43 44 47 45 46 48 51 50 50 50 49 49 50 50 50 55 57
37 38 40 41 42 42 44 46 48 48 47 49 51 53 54 52 47 46 46 48 47 45
39 40 42 41 41 43 45 44 48 49 48 50 50 51 51 50 48 48 44 46 50 50
38 41 40 39 42 42 42 44 45 45 45 43 44 43 44 43 43 46 50 52 54 50
37 38 39 41 43 42 41 41 41 39 38 39 39 38 38 38 42 44 45 46 47 46
31 34 35 37 37 37 35 34 32 34 34 36 36 38 38 36 37 40 40 40 41 41
25 28 30 29 29 29 32 36 35 35 34 32 31 34 35 34 33 32 32 33 32 29

GFSNIL_850_spd_072.txt.gz
Wind_Speed
31 36 33 36 46 56 53 48 45 44 42 42 39 38 39 37 31 30 27 31 36 31
29 32 40 39 41 49 51 54 50 47 44 44 43 41 42 41 41 39 37 38 40 37
36 37 39 37 42 38 46 52 55 53 50 47 41 44 45 45 45 44 42 41 41 41
43 39 36 35 37 46 40 39 44 54 56 54 51 46 47 50 51 51 47 42 42 42
31 41 40 41 44 43 42 48 46 45 48 54 56 55 54 56 55 55 57 52 47 47
27 33 41 44 44 44 40 40 40 42 49 52 54 56 55 55 58 57 51 49 48 47
35 34 35 39 41 44 43 42 42 43 42 47 51 54 54 55 56 55 53 51 50 49
38 37 36 36 40 41 43 46 46 44 46 45 46 48 47 47 49 49 50 51 52 52
36 37 41 41 41 42 45 46 47 49 51 49 51 54 54 54 52 51 50 51 52 50
37 38 40 41 42 46 48 47 50 52 51 53 54 55 55 54 52 51 48 47 47 48
35 38 37 37 42 44 44 46 48 50 50 49 52 50 49 50 50 51 53 54 51 48
32 35 36 39 42 42 41 41 43 43 41 43 48 44 47 45 45 44 47 49 48 47
28 33 35 37 39 39 39 41 37 37 40 42 42 44 43 41 40 42 44 46 48 50
12 18 31 33 34 34 36 37 40 40 40 39 39 40 41 39 40 41 42 43 41 39

GFSNIL_850_spd_075.txt.gz
Wind_Speed
27 27 31 36 42 49 48 47 43 42 39 38 39 36 39 38 36 36 37 35 33 33
30 30 30 33 39 45 49 52 47 45 44 43 39 37 38 38 37 35 35 36 35 34
35 35 33 31 33 39 44 54 49 47 43 42 45 41 40 41 40 40 38 38 39 37
35 37 33 39 38 38 38 50 55 53 49 48 46 45 45 46 45 45 43 45 46 48
38 37 39 39 42 40 40 41 45 50 53 54 53 50 50 48 49 50 49 51 51 52
26 36 45 44 43 42 41 44 44 46 49 48 53 56 60 58 57 55 54 53 54 55
30 28 34 41 44 43 43 44 47 49 48 48 49 48 50 58 62 64 64 62 59 58
32 30 29 31 37 42 45 46 47 47 48 48 48 48 50 54 56 58 59 61 62 60
34 34 34 32 33 35 40 45 46 48 48 48 48 49 49 50 52 55 56 58 60 58
31 34 36 36 36 37 38 39 43 46 47 50 51 50 49 48 48 50 52 53 53 52
32 37 37 37 39 41 41 41 42 44 46 48 52 52 51 49 46 50 54 55 56 57
14 31 38 39 39 40 42 44 45 46 48 49 49 49 51 51 50 53 54 57 58 59
10 9 19 36 39 42 45 44 44 44 45 46 47 47 46 46 49 49 50 52 53 55
15 15 10 14 28 33 36 40 41 41 41 42 44 45 45 44 45 48 49 50 52 53

GFSNIL_850_spd_078.txt.gz
Wind_Speed
23 23 24 25 31 34 39 46 45 44 39 37 35 32 34 38 40 40 41 41 36 36
28 28 28 30 29 35 39 43 47 45 41 41 40 38 38 38 37 37 39 39 38 37
31 29 29 28 34 35 42 44 48 47 45 43 42 41 42 42 41 41 40 42 41 43
32 31 29 30 32 35 37 42 46 48 47 46 45 42 43 44 45 44 45 46 44 44
32 33 33 33 30 32 37 39 45 46 52 50 49 49 49 50 46 46 48 48 48 51
30 36 36 35 37 36 36 38 39 44 49 56 56 54 52 51 51 53 53 54 55 56
27 30 31 34 38 39 37 39 41 43 44 47 56 58 59 58 57 56 57 56 57 58
24 25 26 28 31 36 41 42 43 44 45 47 48 50 51 51 52 53 55 57 61 64
27 28 29 30 30 31 33 36 42 44 45 46 49 50 49 49 50 52 54 56 55 56
23 27 31 30 31 34 35 35 36 39 41 46 48 49 50 50 49 49 49 50 51 52
23 22 25 30 34 36 36 37 36 37 37 39 42 43 45 46 45 48 49 50 50 51
8 15 23 27 29 31 35 40 42 41 40 39 39 44 46 44 46 50 51 50 51 55
3 3 6 10 20 29 33 34 34 35 39 40 41 45 46 47 47 51 52 52 54 56
10 9 8 8 10 13 19 26 30 35 37 40 43 45 48 49 48 50 50 54 56 58

GFSNIL_850_spd_081.txt.gz
Wind_Speed
18 18 20 26 30 31 40 41 34 35 33 38 43 40 36 40 41 43 38 34 36 38
19 20 20 20 22 29 32 33 35 37 36 39 43 44 40 40 42 36 34 36 39 40
21 20 19 18 20 21 25 29 33 38 40 38 36 36 35 37 33 40 39 42 41 41
24 23 21 21 22 22 22 26 30 33 41 40 38 35 34 35 35 37 40 41 43 43
25 24 25 24 24 23 26 27 31 33 38 41 42 42 42 42 42 45 46 47 47 47
26 26 27 25 23 24 24 27 30 32 36 38 44 45 46 46 46 48 48 47 48 48
24 24 25 27 28 28 28 28 30 32 34 36 40 45 48 49 49 50 51 51 51 52
20 22 23 24 26 29 30 32 33 33 36 38 40 43 46 49 53 55 56 57 56 56
19 20 22 24 26 29 30 30 30 35 38 39 42 44 44 45 46 48 52 56 56 55
17 18 20 23 26 30 32 32 34 34 35 37 38 41 42 43 44 45 48 49 50 51
13 14 18 21 22 22 24 30 36 37 38 37 38 40 40 40 42 44 45 47 48 49
8 9 10 13 14 21 26 28 31 30 34 38 39 42 42 42 43 45 45 45 45 53
3 2 4 5 5 9 14 20 22 28 32 35 39 41 42 45 46 47 48 48 52 55
12 9 6 5 4 4 4 4 7 13 21 23 27 31 38 41 43 41 39 42 42 42

GFSNIL_850_spd_084.txt.gz
Wind_Speed
17 18 17 16 22 33 38 38 40 36 34 32 38 41 37 39 40 38 37 38 36 35
16 16 15 18 18 24 29 36 37 39 39 35 32 41 40 41 43 40 38 37 38 37
14 13 13 13 17 21 22 28 35 36 34 32 29 31 41 37 39 43 43 43 41 39
15 15 13 11 11 12 16 22 25 26 29 33 30 30 35 41 41 38 39 35 41 43
14 14 14 14 12 11 11 14 17 21 22 27 32 31 32 35 38 38 37 39 38 41
16 14 13 14 15 14 13 13 15 17 20 21 25 33 34 35 36 38 37 36 37 39
14 14 15 14 15 15 14 15 15 16 19 22 26 31 34 37 39 40 41 42 43 45
10 11 13 13 13 15 17 19 20 19 20 21 23 25 27 30 34 38 41 44 46 48
11 12 13 14 16 17 18 20 20 20 22 25 28 29 29 32 34 36 39 42 44 47
11 11 12 13 15 17 18 19 22 24 25 26 26 29 31 30 31 35 38 41 45 46
12 14 15 15 16 15 16 19 20 21 22 24 30 32 32 33 34 36 37 39 40 42
8 7 8 10 12 15 19 20 21 22 22 24 28 30 31 31 33 35 36 39 41 43
4 4 4 3 3 5 9 14 16 18 22 26 27 30 33 35 35 34 33 37 39 43
11 9 8 6 3 0 2 3 5 7 8 10 14 16 21 25 25 26 23 24 25 28

GFSNIL_850_spd_087.txt.gz
Wind_Speed
16 14 13 12 21 25 32 35 34 30 27 30 34 36 35 28 35 40 34 40 39 38
17 15 14 12 12 28 24 34 40 32 34 33 33 31 44 39 34 38 40 43 39 37
17 15 14 13 13 18 26 29 37 34 37 37 34 30 38 45 41 41 45 44 42 38
16 14 11 12 13 12 17 22 30 32 35 36 33 33 32 40 47 41 45 43 43 44
13 14 13 12 12 12 13 15 18 21 26 27 31 31 29 29 46 45 41 38 42 42
16 14 14 14 14 13 12 13 16 18 20 21 19 22 26 28 28 34 39 36 38 37
16 15 14 14 13 13 12 12 12 14 15 17 17 18 20 27 27 28 31 34 37 38
12 13 13 12 13 14 13 12 11 11 12 13 15 17 19 23 27 30 33 36 38 40
13 14 14 13 12 12 12 13 13 14 13 13 14 16 18 20 23 26 29 31 32 34
11 12 13 13 13 12 12 13 13 14 15 14 19 21 21 22 24 25 25 26 27 29
12 12 11 12 13 13 14 15 15 17 18 22 25 25 24 24 24 25 25 31 33 34
9 9 9 10 9 11 12 13 15 17 18 19 22 25 25 25 24 25 27 29 33 35
9 8 6 6 5 6 8 8 9 10 12 14 16 20 24 25 24 23 25 27 29 32
14 13 11 10 9 7 7 7 7 5 3 2 4 7 9 9 9 11 14 15 15 16

GFSNIL_850_spd_090.txt.gz
Wind_Speed
15 11 13 12 15 20 26 28 30 37 44 44 42 36 36 36 38 44 43 38 34 29
16 13 12 11 16 24 26 28 27 27 26 27 27 28 29 28 29 36 38 36 36 35
16 14 13 11 12 20 24 25 27 27 22 20 22 23 25 28 33 35 35 37 39 38
17 14 13 13 11 16 19 26 34 29 32 32 30 31 31 28 32 41 36 36 39 37
17 14 13 14 12 13 16 20 30 38 40 34 32 37 33 32 31 39 41 31 38 39
18 18 15 14 15 15 13 14 15 22 36 33 34 34 34 30 31 32 43 43 43 43
18 18 17 17 16 15 15 16 17 17 19 19 24 25 26 27 30 28 29 40 44 39
18 16 17 17 17 17 15 14 14 15 17 18 18 19 21 22 27 27 27 27 32 37
16 15 13 14 15 17 17 17 16 16 17 17 18 21 21 19 21 25 28 29 29 32
20 19 18 18 17 15 14 13 14 14 14 19 21 20 21 21 22 21 22 24 26 28
17 17 19 19 19 20 19 19 19 19 21 22 23 22 22 22 23 24 25 26 28 29
16 16 16 17 18 18 18 19 19 19 20 20 21 21 21 22 24 26 28 32 33 33
14 13 12 13 14 14 15 16 16 16 15 16 14 16 17 18 17 18 20 21 22 23
18 14 12 13 13 13 13 12 12 11 10 7 5 4 3 4 7 9 10 9 8 8

GFSNIL_850_spd_093.txt.gz
Wind_Speed
17 16 14 17 16 17 20 22 27 31 37 40 36 42 42 41 41 39 36 36 33 34
17 14 13 15 15 14 13 17 20 36 32 36 42 40 42 40 38 38 34 34 34 30
18 14 12 12 12 9 12 17 19 31 38 45 47 46 50 41 35 37 34 34 34 31
16 15 12 12 10 9 11 16 21 19 25 36 40 40 45 40 34 31 28 27 29 36
15 14 15 13 11 9 9 15 23 18 19 25 26 25 26 25 24 25 26 31 40 41
15 13 13 13 12 12 12 19 25 23 21 22 22 25 25 26 30 26 26 25 36 37
15 13 13 13 12 13 13 15 17 27 28 27 28 27 26 31 30 27 28 25 26 28
14 15 14 15 15 13 11 12 14 15 14 21 28 28 28 29 33 29 28 27 30 31
13 15 15 15 15 17 16 17 15 14 14 15 21 21 21 22 22 24 25 25 27 23
20 19 18 16 15 15 15 15 19 18 17 21 23 21 20 18 17 20 21 25 26 26
21 19 18 16 18 17 19 19 19 20 20 20 20 20 20 19 23 22 21 23 25 27
21 21 19 18 18 18 18 17 19 19 20 20 20 19 19 21 23 26 28 29 27 27
18 19 19 19 19 18 19 21 21 21 19 19 18 21 22 23 23 26 28 28 28 31
18 19 16 15 16 15 15 15 15 13 11 9 8 9 9 9 11 12 13 12 9 8